COSMOS 2251 DEB

Satellite information

Favourite Embed

Satellite Type and Status

DEBRISIN ORBIT

Key statistics

Satellite COSMOS 2251 DEB at a glance.

Uptime

11709

Days in orbit

Revolutions

≈ 14.0

Per day

Orbit

LEO

Low Earth Orbit

Inclination

74.0

Latest

Satellite identification and parameters

Extended collection of information and parameters for COSMOS 2251 DEB.

Object identification

Identified? True

Debris? True

Object name: COSMOS 2251 DEB

International designator: 1993-036XP

Object number (NORAD): 34642

Object ID (CCSDS): 34642

Country: COMMONWEALTH OF INDEPENDENT STATES (CIS)

Current information (Y/N): Y

RCS size: SMALL

Orbital parameters

Period: 102.996 minutes

Inclination: 74.0036 deg

SMA: 7278.486 km

Apoapsis: 1052.682 km

Periapsis: 748.021 km

RAAN: 255.2604 deg

Eccentricy: 0.0209289

Argument of periapsis: 108.6871 deg

Mean anomaly: 321.9297 deg

Mean motion: 13.98109401 rev/day

Mean motion (dot): 0.00001048 rev/day2

B* drag term: 0.00062432 1/REarth

Two-line elements (TLE)

Creation date: July 6, 2025, 6:05 p.m.

Reference frame: TEME

Reference center: EARTH

Epoch: July 6, 2025, 1:54 p.m. UTC

TLE line 0: 0 COSMOS 2251 DEB

TLE line 1: 1 34642U 93036XP 25187.57952873 .00001048 00000-0 62432-3 0 9992

TLE line 2: 2 34642 74.0036 255.2604 0209289 108.6871 321.9297 13.98109401830680

Live tracking on map

Real-time ground track for satellite COSMOS 2251 DEB.

In-orbit conjunctions

A list of the most updated potential collisions computed for object COSMOS 2251 DEB.

Target Orbit TCA Probability of collision Miss distance Type
CZ-6A DEB LEO 2025-01-16 10:40:51 0.0001820488 304.0 (m) DEBRIS
CZ-6A DEB LEO 2024-12-08 07:14:13 0.0001629516 472.0 (m) DEBRIS

Associated space launch

Military communications satellite. Destroyed in a collision with Iridium 33.

COSMOS 2251 DEB was lifted into orbit during the mission ‘Kosmos-3M | Strela-2M 51’, on board a Kosmos-3M space rocket.

The launch took place on June 16, 1993, 4:17 a.m. from 132/1 (132L).

For more information about the launch, click the button.

Launch to space Kosmos-3M | Strela-2M 51
Kosmos-3M | Strela-2M 51

Agency: N/A

Status: Launch Successful

Launch date: June 16, 1993, 4:17 a.m. UTC

Rocket: Kosmos-3M

Launch pad: 132/1 (132L)

Location: Plesetsk Cosmodrome, Russian Federation

...

Latest news about this satellite

There are no fresh news available about this satellite. Check back as we update our databases every day.


Newsletter sign-up

Weekly statistics, charts and insights to help you stay on top of the space industry.